TimeCDT,TemperatureF,Dew PointF,Humidity,Sea Level PressureIn,VisibilityMPH,Wind Direction,Wind SpeedMPH,Gust SpeedMPH,PrecipitationIn,Events,Conditions,WindDirDegrees,DateUTC
12:53 AM,46.9,44.1,90,30.01,10.0,SSE,3.5,-,N/A,,Clear,160,2013-10-08 05:53:00
1:53 AM,46.9,44.1,90,30.01,10.0,South,4.6,-,N/A,,Clear,180,2013-10-08 06:53:00
2:53 AM,44.1,43.0,96,30.03,10.0,South,5.8,-,N/A,,Clear,180,2013-10-08 07:53:00
3:53 AM,43.0,42.1,97,30.02,10.0,South,5.8,-,N/A,,Clear,180,2013-10-08 08:53:00
4:53 AM,42.1,39.9,92,30.01,10.0,South,5.8,-,N/A,,Clear,170,2013-10-08 09:53:00
5:53 AM,42.1,39.9,92,30.01,10.0,South,8.1,-,N/A,,Clear,180,2013-10-08 10:53:00
6:53 AM,43.0,41.0,93,30.02,10.0,South,9.2,-,N/A,,Clear,180,2013-10-08 11:53:00
7:53 AM,45.0,42.1,90,30.03,10.0,South,8.1,-,N/A,,Clear,180,2013-10-08 12:53:00
8:53 AM,51.1,46.9,86,30.03,10.0,South,9.2,-,N/A,,Clear,180,2013-10-08 13:53:00
9:53 AM,61.0,45.0,56,30.02,10.0,SSW,16.1,23.0,N/A,,Clear,200,2013-10-08 14:53:00
10:53 AM,66.9,44.1,44,30.00,10.0,South,15.0,25.3,N/A,,Clear,190,2013-10-08 15:53:00
11:53 AM,71.1,41.0,34,29.99,10.0,SSW,18.4,29.9,N/A,,Clear,200,2013-10-08 16:53:00
12:53 PM,75.0,42.1,31,29.97,10.0,South,18.4,29.9,N/A,,Clear,190,2013-10-08 17:53:00
1:53 PM,73.9,41.0,30,29.95,10.0,SSW,19.6,29.9,N/A,,Clear,200,2013-10-08 18:53:00
2:53 PM,75.9,44.1,32,29.94,10.0,South,23.0,-,N/A,,Clear,180,2013-10-08 19:53:00
3:53 PM,75.9,43.0,31,29.93,10.0,South,24.2,31.1,N/A,,Clear,180,2013-10-08 20:53:00
4:53 PM,73.9,44.1,34,29.93,10.0,South,17.3,28.8,N/A,,Clear,180,2013-10-08 21:53:00
5:53 PM,70.0,45.0,41,29.94,10.0,South,15.0,-,N/A,,Clear,180,2013-10-08 22:53:00
6:53 PM,66.0,46.0,48,29.95,10.0,SSE,12.7,-,N/A,,Clear,160,2013-10-08 23:53:00
7:53 PM,63.0,46.0,54,29.97,10.0,SSE,12.7,-,N/A,,Clear,160,2013-10-09 00:53:00
8:53 PM,61.0,46.0,58,29.97,10.0,South,13.8,-,N/A,,Clear,170,2013-10-09 01:53:00
9:53 PM,60.1,46.0,60,29.98,10.0,South,13.8,-,N/A,,Clear,170,2013-10-09 02:53:00
10:53 PM,61.0,46.9,60,29.99,10.0,South,15.0,-,N/A,,Clear,170,2013-10-09 03:53:00
11:53 PM,59.0,46.9,64,30.00,10.0,South,13.8,-,N/A,,Clear,180,2013-10-09 04:53:00